Regional Weather Roundup
Issued by NWS Upton, NY

Current Version | Previous Version | Text Only | Print | Product List | Glossary On
Versions: 1 2 3 4 5 6 7 8 9 10 11 12 13 14 15 16 17 18 19 20 21 22 23 24 25 26 27 28 29 30 31 32 33 34 35 36 37 38 39 40 41 42 43 44 45 46 47 48
000
ASUS41 KOKX 280107
RWROKX

REGIONAL WEATHER ROUNDUP
NATIONAL WEATHER SERVICE NEW YORK NY
900 PM EDT FRI MAR 27 2015

NOTE: "FAIR" INDICATES FEW OR NO CLOUDS BELOW 12,000 FEET WITH NO
SIGNIFICANT WEATHER AND/OR OBSTRUCTIONS TO VISIBILITY.

NYZ071-072-176-178-NJZ106-104-280200-
NEW YORK CITY METRO AREA


CITY           SKY/WX    TMP DP  RH WIND       PRES   REMARKS
CENTRAL PARK   CLOUDY    43  25  49 VRB5      29.80R
LAGUARDIA APRT CLOUDY    44  28  53 N12       29.77R
KENNEDY INTL   CLOUDY    46  28  49 N9        29.79R
NEWARK/LIBERTY CLOUDY    44  25  47 N13       29.78R
BRNX BOT. GARD   N/A    N/A N/A N/A CALM      29.78S
TETERBORO      CLOUDY    43  26  51 NW8       29.78R
$$

NYZ177-179-078>081-280200-
LONG ISLAND NEW YORK

CITY           SKY/WX    TMP DP  RH WIND       PRES   REMARKS
FARMINGDALE    CLOUDY    44  31  60 N3        29.78R
ISLIP          CLOUDY    40  32  73 NW3       29.76R
SHIRLEY        CLOUDY    39  33  79 CALM      29.78R
WESTHAMPTON    CLOUDY    40  34  79 NW3       29.77R
MONTAUK POINT    N/A     40  37  89 CALM      29.77R
$$

NYZ052-065-067-280200-
HUDSON VALLEY

CITY           SKY/WX    TMP DP  RH WIND       PRES   REMARKS
WHITE PLAINS   CLOUDY    41  27  57 N3        29.76R
NEWBURGH       CLOUDY    39  28  65 CALM      29.78R
MONTGOMERY     CLOUDY    39  24  55 NW7       29.77R WCI  34
POUGHKEEPSIE   CLOUDY    41  26  55 N3        29.77R
ALBANY         FLURRIES  37  23  56 NW10      29.81R WCI  30
$$

NJZ001-105-106-008-010-013-015-019>022-104-280200-
NEW JERSEY

CITY           SKY/WX    TMP DP  RH WIND       PRES   REMARKS
NEWARK/LIBERTY CLOUDY    44  25  47 N13       29.78R
TETERBORO      CLOUDY    43  26  51 NW8       29.78R
CALDWELL       CLOUDY    41  23  48 NW5       29.79R
MORRISTOWN     CLOUDY    41  25  52 N6        29.79S
SOMERVILLE     CLOUDY    42  25  50 CALM      29.79R
SUSSEX         CLEAR     38  24  57 NW6       29.81R WCI  33
ANDOVER          N/A     37  24  59 N3        29.80R
TRENTON        MOCLDY    42  27  55 N3        29.79R
MILLVILLE      CLOUDY    38  34  85 CALM      29.77S
ATLANTIC CITY  CLOUDY    42  33  70 N6        29.78S
WRIGHTSTOWN    CLOUDY    41  30  66 NW6       29.77R
TOMS RIVER     CLOUDY    41  30  65 NW6       29.79R
BELMAR         CLOUDY    43  27  52 NW3       29.78R
$$

PAZ047>061-062-071-280200-
EASTERN PENNSYLVANIA

CITY           SKY/WX    TMP DP  RH WIND       PRES   REMARKS
PHILADELPHIA   CLOUDY    45  25  45 N10       29.80R
ALLENTOWN      CLOUDY    38  26  62 CALM      29.81R
SCRANTON       CLOUDY    36  25  64 N9        29.81R WCI  29
$$

CTZ002-004>006-009-010-012-RIZ004-006-007-MAZ004-011-015-280200-
SOUTHERN NEW ENGLAND
 IN CT

CITY           SKY/WX    TMP DP  RH WIND       PRES   REMARKS
BRADLEY INTL   MOCLDY    41  28  60 NW3       29.75S
HARTFORD       CLOUDY    42  28  57 VRB6      29.77R
DANBURY        CLOUDY    37  27  67 CALM      29.78R
WTRBRY/OXFORD  CLEAR     34  21  60 N6        29.77R WCI  29
BRIDGEPORT     CLOUDY    42  28  57 NW6       29.78R
MERIDEN        CLOUDY    37  30  75 CALM      29.77R
NEW HAVEN      CLOUDY    41  29  62 W5        29.77R
CHESTER        CLOUDY    39  32  75 NW5       29.75R
GROTON         CLOUDY    40  37  89 CALM      29.75R
WILLIMANTIC    CLOUDY    40  33  76 CALM      29.75R

 IN RI

CITY           SKY/WX    TMP DP  RH WIND       PRES   REMARKS
PROVIDENCE     CLOUDY    40  37  89 CALM      29.75S
BLOCK ISLAND   CLOUDY    39  36  87 MISG      29.75R
WESTERLY       CLOUDY    41  39  93 CALM      29.76R

 IN MA

CITY           SKY/WX    TMP DP  RH WIND       PRES   REMARKS
BOSTON         MOCLDY    41  35  79 CALM      29.75R
WORCESTER      CLOUDY    37  32  82 NW7       29.72R WCI  32
WESTFIELD      MOCLDY    37  29  72 CALM      29.75R
PROVINCETOWN   CLOUDY    37  34  87 N3        29.75R
NANTUCKET      CLOUDY    38  36  92 N12       29.72R WCI  30
$$

ANZ330-335-338-340-345-350-353-355-280200-
COASTAL MARINE OBSERVATIONS


STATION/POSITION TIME  SKY/WX   TEMP    WIND        PRES    VSBY  WAVE
                                AIR SEA DIR/SP/G                  HT/PER
                 (UTC)          (F)     (DEG/KT/KT) (MB)    (MI)  (FT/S)
NY HARB ENTRANCE 0050            42 39  300/  8/  8 1008.3          3/11
4S FIRE IS       0003               37                N/A           4/11
20S FIRE ISLAND  2350               38              1007.9          4/ 9
23SW MTP         0050                                 N/A           7/11
HUDSON CANYON    NOT AVBL
EXECUTION ROCKS  NOT AVBL
WESTERN LI SOUND NOT AVBL
CENTRAL LI SOUND NOT AVBL
EASTERN LI SOUND NOT AVBL
ROBBINS REEF     0000            45     330/ 10/ 13 1006.8
$$


>>>>>>>>>>>>>>>>>>>>>>>>>>>> KEY <<<<<<<<<<<<<<<<<<<<<<<<<<<
>                                                          <
>     SKY/WX - SKY CONDITION/PRESENT WEATHER               <
>     TMP    - TEMPERATURE IN FAHRENHEIT                   <
>     DP     - DEWPOINT IN FAHRENHEIT                      <
>     RH     - RELATIVE HUMIDITY IN PERCENT                <
>     WIND   - DIRECTION AND SPEED IN MPH                  <
>     PRES   - MEAN SEA LEVEL PRESSURE IN INCHES OF HG     <
>     WCI    - WIND CHILL INDEX                            <
>     VSB    - VISIBILITY IN MILES                         <
>     HX     - HEAT INDEX                                  <
>     TC     - TEMPERATURE IN CELSIUS                      <
>     VRB    - VARIABLE WIND DIRECTION                     <
>                                                          <
>>>>>>>>>>>>>>>>>>>>>>>>>>>> KEY <<<<<<<<<<<<<<<<<<<<<<<<<<<




USA.gov is the U.S. government's official web portal to all federal, state and local government web resources and services.